Time,TemperatureF,DewpointF,PressureIn,WindDirection,WindDirectionDegrees,WindSpeedMPH,WindSpeedGustMPH,Humidity,HourlyPrecipIn,Conditions,Clouds,dailyrainin,SoftwareType,DateUTC
2013-04-23 00:04:00,55.8,43.3,30.01,SSE,157,0.0,0.0,63,0.00,,,0.00,WUHU21623XXSP,2013-04-23 05:04:00,
2013-04-23 00:09:00,55.6,43.5,30.00,SSE,157,0.0,0.0,64,0.00,,,0.00,WUHU21623XXSP,2013-04-23 05:09:00,
2013-04-23 00:14:00,55.4,43.4,30.01,SSE,157,0.0,0.0,64,0.00,,,0.00,WUHU21623XXSP,2013-04-23 05:14:00,
2013-04-23 00:19:00,55.4,43.8,30.00,SSE,157,0.0,0.0,65,0.00,,,0.00,WUHU21623XXSP,2013-04-23 05:19:00,
2013-04-23 00:24:00,55.6,44.0,30.01,SSE,157,0.0,0.0,65,0.00,,,0.00,WUHU21623XXSP,2013-04-23 05:24:00,
2013-04-23 00:29:00,55.6,44.4,30.01,SSE,157,0.0,0.0,66,0.00,,,0.00,WUHU21623XXSP,2013-04-23 05:29:00,
2013-04-23 00:34:00,55.6,44.4,30.02,SSE,157,0.0,0.0,66,0.00,,,0.00,WUHU21623XXSP,2013-04-23 05:34:00,
2013-04-23 00:39:00,55.8,44.9,30.02,SSE,157,0.0,0.0,67,0.00,,,0.00,WUHU21623XXSP,2013-04-23 05:39:00,
2013-04-23 00:44:00,55.8,45.4,30.00,SSE,157,0.0,0.0,68,0.00,,,0.00,WUHU21623XXSP,2013-04-23 05:44:00,
2013-04-23 00:49:00,55.6,45.2,30.00,SSE,157,0.0,0.0,68,0.00,,,0.00,WUHU21623XXSP,2013-04-23 05:49:00,
2013-04-23 00:54:00,55.6,45.2,30.00,SSE,157,0.0,0.0,68,0.00,,,0.00,WUHU21623XXSP,2013-04-23 05:54:00,
2013-04-23 00:59:00,55.6,45.2,30.00,SSE,157,0.0,0.0,68,0.00,,,0.00,WUHU21623XXSP,2013-04-23 05:59:00,
2013-04-23 01:04:00,55.6,45.2,30.00,SSE,157,0.0,0.0,68,0.00,,,0.00,WUHU21623XXSP,2013-04-23 06:04:00,
2013-04-23 01:09:00,55.6,44.8,30.00,SSE,157,0.0,0.0,67,0.00,,,0.00,WUHU21623XXSP,2013-04-23 06:09:00,
2013-04-23 01:14:00,55.6,44.8,29.99,SSE,157,0.0,0.0,67,0.00,,,0.00,WUHU21623XXSP,2013-04-23 06:14:00,
2013-04-23 01:19:00,55.8,44.8,30.00,SSE,157,0.0,0.0,67,0.00,,,0.00,WUHU21623XXSP,2013-04-23 06:19:00,
2013-04-23 01:24:00,55.8,44.9,29.99,SSE,157,0.0,0.0,67,0.00,,,0.00,WUHU21623XXSP,2013-04-23 06:24:00,
2013-04-23 01:29:00,55.9,45.1,29.99,SSE,157,0.0,0.0,67,0.00,,,0.00,WUHU21623XXSP,2013-04-23 06:29:00,
2013-04-23 01:34:00,55.9,45.5,29.99,SSE,157,0.0,0.0,68,0.00,,,0.00,WUHU21623XXSP,2013-04-23 06:34:00,
2013-04-23 01:39:00,56.1,45.3,29.99,SSE,157,0.0,0.0,67,0.00,,,0.00,WUHU21623XXSP,2013-04-23 06:39:00,
2013-04-23 01:44:00,56.7,45.6,29.99,SSE,157,0.0,0.0,67,0.00,,,0.00,WUHU21623XXSP,2013-04-23 06:44:00,
2013-04-23 01:49:00,57.0,45.7,29.99,SSE,157,0.0,0.0,66,0.00,,,0.00,WUHU21623XXSP,2013-04-23 06:49:00,
2013-04-23 01:54:00,57.7,45.7,29.98,SSE,157,0.0,0.0,65,0.00,,,0.00,WUHU21623XXSP,2013-04-23 06:54:00,
2013-04-23 01:59:00,58.6,46.0,29.98,South,180,0.0,0.0,63,0.00,,,0.00,WUHU21623XXSP,2013-04-23 06:59:00,
2013-04-23 02:04:00,58.8,45.8,29.98,SSE,157,0.0,0.0,62,0.00,,,0.00,WUHU21623XXSP,2013-04-23 07:04:00,
2013-04-23 02:09:00,59.5,46.1,29.98,South,180,0.0,0.0,61,0.00,,,0.00,WUHU21623XXSP,2013-04-23 07:09:00,
2013-04-23 02:14:00,60.1,46.2,29.98,SSE,157,0.0,0.0,60,0.00,,,0.00,WUHU21623XXSP,2013-04-23 07:14:00,
2013-04-23 02:19:00,60.6,46.3,29.98,South,180,0.0,0.0,59,0.00,,,0.00,WUHU21623XXSP,2013-04-23 07:19:00,
2013-04-23 02:24:00,60.6,45.8,29.97,SSE,157,0.0,0.0,58,0.00,,,0.00,WUHU21623XXSP,2013-04-23 07:24:00,
2013-04-23 02:29:00,61.3,46.0,29.97,SSE,157,0.0,0.0,57,0.00,,,0.00,WUHU21623XXSP,2013-04-23 07:29:00,
2013-04-23 02:34:00,61.3,45.5,29.97,SSE,157,0.0,0.0,56,0.00,,,0.00,WUHU21623XXSP,2013-04-23 07:34:00,
2013-04-23 02:39:00,61.5,45.6,29.96,SSE,157,0.0,0.0,56,0.00,,,0.00,WUHU21623XXSP,2013-04-23 07:39:00,
2013-04-23 02:44:00,61.5,45.6,29.95,SSE,157,0.0,0.0,56,0.00,,,0.00,WUHU21623XXSP,2013-04-23 07:44:00,
2013-04-23 02:49:00,61.5,45.6,29.93,South,180,0.0,0.0,56,0.00,,,0.00,WUHU21623XXSP,2013-04-23 07:49:00,
2013-04-23 02:54:00,61.5,45.6,29.92,SSE,157,1.1,1.1,56,0.00,,,0.00,WUHU21623XXSP,2013-04-23 07:54:00,
2013-04-23 02:59:00,61.5,45.6,29.91,SSE,157,0.0,1.1,56,0.00,,,0.00,WUHU21623XXSP,2013-04-23 07:59:00,
2013-04-23 03:04:00,61.5,45.6,29.90,SSE,157,0.0,0.0,56,0.00,,,0.00,WUHU21623XXSP,2013-04-23 08:04:00,
2013-04-23 03:09:00,61.7,45.3,29.91,SSE,157,0.0,0.0,55,0.00,,,0.00,WUHU21623XXSP,2013-04-23 08:09:00,
2013-04-23 03:14:00,61.9,45.5,29.93,WSW,247,0.0,0.0,55,0.00,,,0.00,WUHU21623XXSP,2013-04-23 08:14:00,
2013-04-23 03:19:00,62.1,45.6,29.93,South,180,0.0,0.0,55,0.00,,,0.00,WUHU21623XXSP,2013-04-23 08:19:00,
2013-04-23 03:24:00,62.1,45.2,29.93,SSE,157,0.0,0.0,54,0.00,,,0.00,WUHU21623XXSP,2013-04-23 08:24:00,
2013-04-23 03:29:00,62.2,45.3,29.92,SSE,157,0.0,0.0,54,0.00,,,0.00,WUHU21623XXSP,2013-04-23 08:29:00,
2013-04-23 03:34:00,62.2,45.3,29.92,South,180,0.7,4.0,54,0.00,,,0.00,WUHU21623XXSP,2013-04-23 08:34:00,
2013-04-23 03:39:00,62.2,45.3,29.92,SSE,157,0.0,4.0,54,0.00,,,0.00,WUHU21623XXSP,2013-04-23 08:39:00,
2013-04-23 03:44:00,62.2,45.3,29.92,SSE,157,0.0,0.0,54,0.00,,,0.00,WUHU21623XXSP,2013-04-23 08:44:00,
2013-04-23 03:49:00,62.1,45.2,29.91,SSE,157,0.0,0.0,54,0.00,,,0.00,WUHU21623XXSP,2013-04-23 08:49:00,
2013-04-23 03:54:00,62.1,45.2,29.91,SSE,157,0.0,0.0,54,0.00,,,0.00,WUHU21623XXSP,2013-04-23 08:54:00,
2013-04-23 03:59:00,62.1,45.2,29.91,SSW,202,0.0,6.0,54,0.00,,,0.00,WUHU21623XXSP,2013-04-23 08:59:00,
2013-04-23 04:04:00,62.2,45.3,29.90,South,180,0.0,6.0,54,0.00,,,0.00,WUHU21623XXSP,2013-04-23 09:04:00,
2013-04-23 04:09:00,62.2,45.3,29.90,SSW,202,0.0,6.3,54,0.00,,,0.00,WUHU21623XXSP,2013-04-23 09:09:00,
2013-04-23 04:14:00,62.4,45.5,29.90,SSE,157,0.0,6.3,54,0.00,,,0.00,WUHU21623XXSP,2013-04-23 09:14:00,
2013-04-23 04:19:00,62.4,45.5,29.89,South,180,0.0,0.0,54,0.00,,,0.00,WUHU21623XXSP,2013-04-23 09:19:00,
2013-04-23 04:24:00,62.4,45.5,29.92,WSW,247,1.6,8.1,54,0.00,,,0.00,WUHU21623XXSP,2013-04-23 09:24:00,
2013-04-23 04:29:00,62.4,45.5,29.92,SSE,157,0.0,8.1,54,0.00,,,0.00,WUHU21623XXSP,2013-04-23 09:29:00,
2013-04-23 04:34:00,62.6,45.6,29.93,SSW,202,0.0,0.0,54,0.00,,,0.00,WUHU21623XXSP,2013-04-23 09:34:00,
2013-04-23 04:39:00,62.4,46.0,29.93,South,180,0.0,0.0,55,0.00,,,0.00,WUHU21623XXSP,2013-04-23 09:39:00,
2013-04-23 04:44:00,62.2,46.3,29.92,SSE,157,6.5,6.5,56,0.00,,,0.00,WUHU21623XXSP,2013-04-23 09:44:00,
2013-04-23 04:49:00,61.9,46.5,29.89,SSE,157,0.0,6.5,57,0.00,,,0.00,WUHU21623XXSP,2013-04-23 09:49:00,
2013-04-23 04:54:00,61.3,46.5,29.88,SSE,157,1.8,4.9,58,0.00,,,0.00,WUHU21623XXSP,2013-04-23 09:54:00,
2013-04-23 04:59:00,61.3,46.5,29.87,SSE,157,0.0,4.9,58,0.00,,,0.00,WUHU21623XXSP,2013-04-23 09:59:00,
2013-04-23 05:04:00,61.3,46.5,29.87,SSE,157,0.0,0.0,58,0.00,,,0.00,WUHU21623XXSP,2013-04-23 10:04:00,
2013-04-23 05:09:00,61.3,46.5,29.87,SSE,157,0.0,5.6,58,0.00,,,0.00,WUHU21623XXSP,2013-04-23 10:09:00,
2013-04-23 05:14:00,61.5,46.1,29.90,SSE,157,2.5,5.6,57,0.00,,,0.00,WUHU21623XXSP,2013-04-23 10:14:00,
2013-04-23 05:19:00,61.5,46.1,29.91,South,180,0.0,2.5,57,0.00,,,0.00,WUHU21623XXSP,2013-04-23 10:19:00,
2013-04-23 05:24:00,61.7,46.3,29.93,SSW,202,0.0,1.3,57,0.00,,,0.00,WUHU21623XXSP,2013-04-23 10:24:00,
2013-04-23 05:29:00,61.7,46.3,29.91,SSW,202,0.0,1.3,57,0.00,,,0.00,WUHU21623XXSP,2013-04-23 10:29:00,
2013-04-23 05:34:00,61.7,46.3,29.91,SSE,157,0.0,0.0,57,0.00,,,0.00,WUHU21623XXSP,2013-04-23 10:34:00,
2013-04-23 05:39:00,61.7,46.3,29.91,SW,225,0.0,0.0,57,0.00,,,0.00,WUHU21623XXSP,2013-04-23 10:39:00,
2013-04-23 05:44:00,61.7,46.3,29.91,SSE,157,2.2,2.2,57,0.00,,,0.00,WUHU21623XXSP,2013-04-23 10:44:00,
2013-04-23 05:49:00,61.5,46.1,29.91,South,180,5.1,5.1,57,0.00,,,0.00,WUHU21623XXSP,2013-04-23 10:49:00,
2013-04-23 05:54:00,61.7,46.3,29.90,South,180,3.8,5.1,57,0.00,,,0.00,WUHU21623XXSP,2013-04-23 10:54:00,
2013-04-23 05:59:00,61.7,46.3,29.90,SSW,202,0.0,3.8,57,0.00,,,0.00,WUHU21623XXSP,2013-04-23 10:59:00,
2013-04-23 06:04:00,61.7,46.3,29.90,South,180,0.0,0.0,57,0.00,,,0.00,WUHU21623XXSP,2013-04-23 11:04:00,
2013-04-23 06:09:00,61.7,46.3,29.90,South,180,0.0,0.0,57,0.00,,,0.00,WUHU21623XXSP,2013-04-23 11:09:00,
2013-04-23 06:14:00,61.5,46.6,29.90,SSW,202,1.8,2.0,58,0.00,,,0.00,WUHU21623XXSP,2013-04-23 11:14:00,
2013-04-23 06:19:00,61.5,46.6,29.89,SSE,157,5.8,5.8,58,0.00,,,0.00,WUHU21623XXSP,2013-04-23 11:19:00,
2013-04-23 06:24:00,61.7,46.8,29.90,SW,225,0.0,5.8,58,0.00,,,0.00,WUHU21623XXSP,2013-04-23 11:24:00,
2013-04-23 06:29:00,61.7,47.3,29.89,SSW,202,5.1,5.1,59,0.00,,,0.00,WUHU21623XXSP,2013-04-23 11:29:00,
2013-04-23 06:34:00,61.9,47.4,29.89,SSE,157,0.0,10.7,59,0.00,,,0.00,WUHU21623XXSP,2013-04-23 11:34:00,
2013-04-23 06:39:00,62.1,47.6,29.89,SSE,157,0.0,10.7,59,0.00,,,0.00,WUHU21623XXSP,2013-04-23 11:39:00,
2013-04-23 06:44:00,62.1,47.6,29.89,SSE,157,0.0,8.1,59,0.00,,,0.00,WUHU21623XXSP,2013-04-23 11:44:00,
2013-04-23 06:49:00,62.1,47.6,29.88,South,180,8.3,8.3,59,0.00,,,0.00,WUHU21623XXSP,2013-04-23 11:49:00,
2013-04-23 06:54:00,62.1,48.1,29.89,South,180,0.0,8.3,60,0.00,,,0.00,WUHU21623XXSP,2013-04-23 11:54:00,
2013-04-23 06:59:00,62.1,48.1,29.88,South,180,5.6,6.0,60,0.00,,,0.00,WUHU21623XXSP,2013-04-23 11:59:00,
2013-04-23 07:04:00,62.2,48.2,29.88,South,180,1.8,5.6,60,0.00,,,0.00,WUHU21623XXSP,2013-04-23 12:04:00,
2013-04-23 07:09:00,62.2,48.2,29.89,South,180,6.5,6.5,60,0.00,,,0.00,WUHU21623XXSP,2013-04-23 12:09:00,
2013-04-23 07:14:00,62.4,48.4,29.90,SW,225,0.0,6.5,60,0.00,,,0.00,WUHU21623XXSP,2013-04-23 12:14:00,
2013-04-23 07:19:00,62.4,48.4,29.92,WSW,247,0.0,5.8,60,0.00,,,0.00,WUHU21623XXSP,2013-04-23 12:19:00,
2013-04-23 07:24:00,62.2,48.2,29.93,NNW,337,0.0,1.3,60,0.00,,,0.00,WUHU21623XXSP,2013-04-23 12:24:00,
2013-04-23 07:29:00,61.9,47.9,29.93,West,270,0.0,1.3,60,0.00,,,0.00,WUHU21623XXSP,2013-04-23 12:29:00,
2013-04-23 07:34:00,61.7,48.3,29.95,NNW,337,0.0,0.0,61,0.00,,,0.00,WUHU21623XXSP,2013-04-23 12:34:00,
2013-04-23 07:39:00,61.7,48.2,29.95,NW,315,0.0,0.0,61,0.00,,,0.00,WUHU21623XXSP,2013-04-23 12:39:00,
2013-04-23 07:44:00,61.5,48.0,29.95,NW,315,0.0,0.0,61,0.00,,,0.00,WUHU21623XXSP,2013-04-23 12:44:00,
2013-04-23 07:49:00,61.5,48.0,29.95,West,270,0.0,0.0,61,0.00,,,0.00,WUHU21623XXSP,2013-04-23 12:49:00,
2013-04-23 07:55:00,61.5,48.4,29.95,West,270,0.0,0.0,62,0.00,,,0.00,WUHU21623XXSP,2013-04-23 12:55:00,
2013-04-23 08:00:00,61.3,48.3,29.96,West,270,0.0,0.0,62,0.00,,,0.00,WUHU21623XXSP,2013-04-23 13:00:00,
2013-04-23 08:05:00,61.2,48.1,29.96,West,270,0.0,0.0,62,0.00,,,0.00,WUHU21623XXSP,2013-04-23 13:05:00,
2013-04-23 08:10:00,61.0,47.9,29.96,West,270,0.0,0.0,62,0.00,,,0.00,WUHU21623XXSP,2013-04-23 13:10:00,
2013-04-23 08:15:00,61.0,47.9,29.96,West,270,0.0,0.0,62,0.00,,,0.00,WUHU21623XXSP,2013-04-23 13:15:00,
2013-04-23 08:20:00,61.0,48.5,29.96,West,270,0.0,0.0,63,0.00,,,0.00,WUHU21623XXSP,2013-04-23 13:20:00,
2013-04-23 08:25:00,61.2,48.5,29.96,West,270,0.0,0.0,63,0.00,,,0.00,WUHU21623XXSP,2013-04-23 13:25:00,
2013-04-23 08:30:00,61.2,48.5,29.96,West,270,0.0,0.0,63,0.00,,,0.00,WUHU21623XXSP,2013-04-23 13:30:00,
2013-04-23 08:35:00,61.3,48.7,29.96,West,270,0.0,0.0,63,0.00,,,0.00,WUHU21623XXSP,2013-04-23 13:35:00,
2013-04-23 08:40:00,61.3,48.7,29.96,West,270,0.0,0.0,63,0.00,,,0.00,WUHU21623XXSP,2013-04-23 13:40:00,
2013-04-23 08:45:00,61.3,48.7,29.95,West,270,0.0,0.0,63,0.00,,,0.00,WUHU21623XXSP,2013-04-23 13:45:00,
2013-04-23 08:50:00,61.9,49.0,29.95,West,270,0.0,0.0,63,0.00,,,0.00,WUHU21623XXSP,2013-04-23 13:50:00,
2013-04-23 08:55:00,62.2,49.5,29.95,West,270,0.0,0.0,63,0.00,,,0.00,WUHU21623XXSP,2013-04-23 13:55:00,
2013-04-23 09:00:00,62.4,49.6,29.96,West,270,0.0,0.0,63,0.00,,,0.00,WUHU21623XXSP,2013-04-23 14:00:00,
2013-04-23 09:05:00,62.8,49.5,29.95,WSW,247,0.0,0.0,62,0.00,,,0.00,WUHU21623XXSP,2013-04-23 14:05:00,
2013-04-23 09:10:00,62.8,49.5,29.96,WSW,247,0.0,0.0,62,0.00,,,0.00,WUHU21623XXSP,2013-04-23 14:10:00,
2013-04-23 09:15:00,63.0,49.7,29.96,SSE,157,0.0,0.0,62,0.00,,,0.00,WUHU21623XXSP,2013-04-23 14:15:00,
2013-04-23 09:20:00,63.1,49.9,29.96,SW,225,0.0,0.0,62,0.00,,,0.00,WUHU21623XXSP,2013-04-23 14:20:00,
2013-04-23 09:25:00,63.1,49.9,29.95,South,180,0.0,0.0,62,0.00,,,0.00,WUHU21623XXSP,2013-04-23 14:25:00,
2013-04-23 09:30:00,63.1,49.9,29.95,SSW,202,0.0,0.0,62,0.00,,,0.00,WUHU21623XXSP,2013-04-23 14:30:00,
2013-04-23 09:35:00,63.1,49.9,29.95,South,180,0.0,0.0,62,0.00,,,0.00,WUHU21623XXSP,2013-04-23 14:35:00,
2013-04-23 09:40:00,63.3,49.9,29.95,South,180,0.0,0.0,62,0.00,,,0.00,WUHU21623XXSP,2013-04-23 14:40:00,
2013-04-23 09:45:00,63.3,50.0,29.95,South,180,0.0,0.0,62,0.00,,,0.00,WUHU21623XXSP,2013-04-23 14:45:00,
2013-04-23 09:50:00,63.1,49.9,29.95,SSW,202,0.0,0.0,62,0.00,,,0.00,WUHU21623XXSP,2013-04-23 14:50:00,
2013-04-23 09:55:00,63.1,49.9,29.95,SSW,202,0.0,0.0,62,0.00,,,0.00,WUHU21623XXSP,2013-04-23 14:55:00,
2013-04-23 10:00:00,63.1,50.3,29.96,South,180,0.0,0.0,63,0.00,,,0.00,WUHU21623XXSP,2013-04-23 15:00:00,
2013-04-23 10:05:00,63.1,50.3,29.96,South,180,0.0,0.0,63,0.00,,,0.00,WUHU21623XXSP,2013-04-23 15:05:00,
2013-04-23 10:10:00,63.1,50.3,29.96,SW,225,0.0,0.0,63,0.00,,,0.00,WUHU21623XXSP,2013-04-23 15:10:00,
2013-04-23 10:15:00,63.0,50.1,29.96,SSW,202,0.0,0.0,63,0.00,,,0.00,WUHU21623XXSP,2013-04-23 15:15:00,
2013-04-23 10:20:00,63.0,50.1,29.96,South,180,0.0,0.0,63,0.00,,,0.00,WUHU21623XXSP,2013-04-23 15:20:00,
2013-04-23 10:25:00,63.0,50.1,29.96,SSW,202,0.0,0.0,63,0.00,,,0.00,WUHU21623XXSP,2013-04-23 15:25:00,
2013-04-23 10:30:00,63.0,50.1,29.96,SSW,202,0.0,0.0,63,0.00,,,0.00,WUHU21623XXSP,2013-04-23 15:30:00,
2013-04-23 10:35:00,63.0,50.5,29.96,SSW,202,0.0,0.0,64,0.00,,,0.00,WUHU21623XXSP,2013-04-23 15:35:00,
2013-04-23 10:40:00,63.0,50.5,29.96,South,180,0.0,0.0,64,0.00,,,0.00,WUHU21623XXSP,2013-04-23 15:40:00,
2013-04-23 10:45:00,63.1,50.7,29.95,South,180,0.0,0.0,64,0.00,,,0.00,WUHU21623XXSP,2013-04-23 15:45:00,
2013-04-23 10:50:00,63.7,51.2,29.95,South,180,0.0,0.0,64,0.00,,,0.00,WUHU21623XXSP,2013-04-23 15:50:00,
2013-04-23 10:55:00,64.2,51.1,29.95,SSE,157,0.0,0.0,63,0.00,,,0.00,WUHU21623XXSP,2013-04-23 15:55:00,
2013-04-23 11:00:00,64.4,51.0,29.96,SSE,157,0.0,0.0,62,0.00,,,0.00,WUHU21623XXSP,2013-04-23 16:00:00,
2013-04-23 11:05:00,64.6,50.4,29.96,SW,225,0.0,0.0,60,0.00,,,0.00,WUHU21623XXSP,2013-04-23 16:05:00,
2013-04-23 11:10:00,64.6,50.4,29.96,South,180,0.0,0.0,60,0.00,,,0.00,WUHU21623XXSP,2013-04-23 16:10:00,
2013-04-23 11:15:00,64.6,50.4,29.96,South,180,0.0,0.0,60,0.00,,,0.00,WUHU21623XXSP,2013-04-23 16:15:00,
2013-04-23 11:20:00,64.6,50.4,29.97,SW,225,0.0,0.0,60,0.00,,,0.00,WUHU21623XXSP,2013-04-23 16:20:00,
2013-04-23 11:25:00,64.2,50.0,29.97,SSW,202,0.0,0.0,60,0.00,,,0.00,WUHU21623XXSP,2013-04-23 16:25:00,
2013-04-23 11:30:00,64.2,50.4,29.97,South,180,0.0,0.0,61,0.00,,,0.00,WUHU21623XXSP,2013-04-23 16:30:00,
2013-04-23 11:35:00,64.2,50.4,29.96,South,180,0.0,0.0,61,0.00,,,0.00,WUHU21623XXSP,2013-04-23 16:35:00,
2013-04-23 11:40:00,64.4,50.6,29.96,SSW,202,0.0,0.0,61,0.00,,,0.00,WUHU21623XXSP,2013-04-23 16:40:00,
2013-04-23 11:45:00,64.6,51.2,29.96,SSW,202,0.0,0.0,61,0.00,,,0.00,WUHU21623XXSP,2013-04-23 16:45:00,
2013-04-23 11:50:00,64.6,51.2,29.96,SSW,202,0.0,0.0,62,0.00,,,0.00,WUHU21623XXSP,2013-04-23 16:50:00,
2013-04-23 11:55:00,64.6,51.2,29.96,SW,225,0.0,0.0,62,0.00,,,0.00,WUHU21623XXSP,2013-04-23 16:55:00,
2013-04-23 12:00:00,64.6,51.2,29.96,SSW,202,0.0,0.0,62,0.00,,,0.00,WUHU21623XXSP,2013-04-23 17:00:00,
2013-04-23 12:05:00,64.6,51.2,29.96,South,180,1.3,1.3,62,0.00,,,0.00,WUHU21623XXSP,2013-04-23 17:05:00,
2013-04-23 12:10:00,64.4,51.0,29.96,SSW,202,0.0,1.3,62,0.00,,,0.00,WUHU21623XXSP,2013-04-23 17:10:00,
2013-04-23 12:15:00,64.2,50.9,29.96,South,180,0.0,0.0,62,0.00,,,0.00,WUHU21623XXSP,2013-04-23 17:15:00,
2013-04-23 12:20:00,64.2,51.3,29.97,South,180,0.9,0.9,63,0.00,,,0.00,WUHU21623XXSP,2013-04-23 17:20:00,
2013-04-23 12:25:00,64.0,51.1,29.97,SSW,202,0.0,0.9,63,0.00,,,0.00,WUHU21623XXSP,2013-04-23 17:25:00,
2013-04-23 12:30:00,64.0,51.6,29.97,WSW,247,0.0,0.0,64,0.00,,,0.00,WUHU21623XXSP,2013-04-23 17:30:00,
2013-04-23 12:35:00,63.5,51.2,29.96,WSW,247,0.0,0.0,65,0.00,,,0.00,WUHU21623XXSP,2013-04-23 17:35:00,
2013-04-23 12:40:00,63.1,51.5,29.96,WSW,247,0.0,0.0,66,0.00,,,0.00,WUHU21623XXSP,2013-04-23 17:40:00,
2013-04-23 12:45:00,63.1,52.0,29.96,WSW,247,0.0,0.0,67,0.00,,,0.00,WUHU21623XXSP,2013-04-23 17:45:00,
2013-04-23 12:50:00,62.8,52.0,29.96,WSW,247,0.0,0.0,68,0.00,,,0.00,WUHU21623XXSP,2013-04-23 17:50:00,
2013-04-23 12:55:00,62.2,52.0,29.97,WSW,247,0.0,0.0,69,0.00,,,0.00,WUHU21623XXSP,2013-04-23 17:55:00,
2013-04-23 13:00:00,61.5,52.1,29.97,WSW,247,0.0,0.0,71,0.00,,,0.00,WUHU21623XXSP,2013-04-23 18:00:00,
2013-04-23 13:05:00,61.3,51.9,29.97,WSW,247,0.0,0.0,71,0.00,,,0.00,WUHU21623XXSP,2013-04-23 18:05:00,
2013-04-23 13:10:00,60.6,51.6,29.96,WNW,292,0.0,1.8,72,0.00,,,0.00,WUHU21623XXSP,2013-04-23 18:10:00,
2013-04-23 13:15:00,60.1,51.4,29.96,NNW,337,0.0,1.8,73,0.00,,,0.00,WUHU21623XXSP,2013-04-23 18:15:00,
2013-04-23 13:20:00,59.5,51.3,29.97,NW,315,0.0,0.0,74,0.00,,,0.00,WUHU21623XXSP,2013-04-23 18:20:00,
2013-04-23 13:25:00,58.8,50.5,29.97,NW,315,0.0,0.0,74,0.00,,,0.00,WUHU21623XXSP,2013-04-23 18:25:00,
2013-04-23 13:30:00,57.6,49.3,29.96,NNW,337,0.0,0.0,74,0.00,,,0.00,WUHU21623XXSP,2013-04-23 18:30:00,
2013-04-23 13:35:00,57.0,48.9,29.97,NNW,337,0.0,1.1,74,0.00,,,0.00,WUHU21623XXSP,2013-04-23 18:35:00,
2013-04-23 13:40:00,56.1,48.3,29.97,NW,315,0.0,1.1,75,0.00,,,0.00,WUHU21623XXSP,2013-04-23 18:40:00,
2013-04-23 13:45:00,55.2,47.4,29.97,NW,315,0.0,0.0,75,0.00,,,0.00,WUHU21623XXSP,2013-04-23 18:45:00,
2013-04-23 13:50:00,54.3,46.9,29.97,WNW,292,0.0,0.0,76,0.00,,,0.00,WUHU21623XXSP,2013-04-23 18:50:00,
2013-04-23 13:55:00,53.8,46.4,29.97,WNW,292,0.0,0.0,76,0.00,,,0.00,WUHU21623XXSP,2013-04-23 18:55:00,
2013-04-23 14:00:00,52.9,45.9,29.98,NW,315,0.0,0.0,77,0.00,,,0.00,WUHU21623XXSP,2013-04-23 19:00:00,
2013-04-23 14:05:00,52.3,45.7,29.98,NW,315,0.0,0.0,78,0.00,,,0.00,WUHU21623XXSP,2013-04-23 19:05:00,
2013-04-23 14:10:00,52.0,45.3,29.98,WNW,292,0.0,0.0,78,0.00,,,0.00,WUHU21623XXSP,2013-04-23 19:10:00,
2013-04-23 14:15:00,51.4,45.2,29.97,NW,315,0.0,0.0,79,0.00,,,0.00,WUHU21623XXSP,2013-04-23 19:15:00,
2013-04-23 14:20:00,50.9,44.6,29.98,West,270,0.0,0.0,79,0.00,,,0.00,WUHU21623XXSP,2013-04-23 19:20:00,
2013-04-23 14:25:00,50.5,44.3,29.98,West,270,0.0,0.0,79,0.00,,,0.00,WUHU21623XXSP,2013-04-23 19:25:00,
2013-04-23 14:30:00,49.8,43.9,29.99,West,270,0.0,0.0,80,0.00,,,0.00,WUHU21623XXSP,2013-04-23 19:30:00,
2013-04-23 14:35:00,49.3,43.7,29.99,West,270,0.0,0.0,80,0.00,,,0.00,WUHU21623XXSP,2013-04-23 19:35:00,
2013-04-23 14:40:00,48.7,42.8,29.99,West,270,0.0,0.0,80,0.00,,,0.00,WUHU21623XXSP,2013-04-23 19:40:00,
2013-04-23 14:45:00,47.8,42.2,29.99,West,270,0.0,0.0,81,0.00,,,0.00,WUHU21623XXSP,2013-04-23 19:45:00,
2013-04-23 14:50:00,47.5,42.1,29.99,West,270,0.0,0.0,81,0.00,,,0.00,WUHU21623XXSP,2013-04-23 19:50:00,
2013-04-23 14:55:00,46.9,41.6,29.99,West,270,0.0,0.0,81,0.00,,,0.00,WUHU21623XXSP,2013-04-23 19:55:00,
2013-04-23 15:00:00,46.4,41.4,30.00,WNW,292,0.0,0.0,82,0.00,,,0.00,WUHU21623XXSP,2013-04-23 20:00:00,
2013-04-23 15:06:00,46.2,41.4,29.99,NW,315,0.0,0.0,83,0.00,,,0.00,WUHU21623XXSP,2013-04-23 20:06:00,
2013-04-23 15:11:00,46.0,41.2,29.99,NW,315,0.0,0.0,83,0.00,,,0.00,WUHU21623XXSP,2013-04-23 20:11:00,
2013-04-23 15:16:00,45.7,40.8,29.99,WNW,292,0.0,0.0,83,0.00,,,0.00,WUHU21623XXSP,2013-04-23 20:16:00,
2013-04-23 15:21:00,45.5,41.0,30.00,NNW,337,0.0,0.0,84,0.00,,,0.00,WUHU21623XXSP,2013-04-23 20:21:00,
2013-04-23 15:26:00,45.3,40.8,30.00,NNW,337,0.0,0.0,84,0.00,,,0.00,WUHU21623XXSP,2013-04-23 20:26:00,
2013-04-23 15:31:00,44.8,40.2,30.01,NNW,337,5.1,5.1,84,0.00,,,0.00,WUHU21623XXSP,2013-04-23 20:31:00,
2013-04-23 15:36:00,44.4,39.9,30.01,NNW,337,0.0,5.1,84,0.00,,,0.00,WUHU21623XXSP,2013-04-23 20:36:00,
2013-04-23 15:41:00,44.2,39.7,30.02,North,0,0.0,0.0,84,0.00,,,0.00,WUHU21623XXSP,2013-04-23 20:41:00,
2013-04-23 15:46:00,43.9,39.6,30.02,NNW,337,0.0,0.0,85,0.00,,,0.00,WUHU21623XXSP,2013-04-23 20:46:00,
2013-04-23 15:51:00,43.7,39.6,30.02,North,0,0.0,0.0,85,0.00,,,0.00,WUHU21623XXSP,2013-04-23 20:51:00,
2013-04-23 15:56:00,43.7,39.5,30.01,NNW,337,0.0,0.0,85,0.00,,,0.00,WUHU21623XXSP,2013-04-23 20:56:00,
2013-04-23 16:01:00,43.5,39.3,30.02,North,0,0.0,0.0,85,0.00,,,0.00,WUHU21623XXSP,2013-04-23 21:01:00,
2013-04-23 16:06:00,43.5,39.3,30.02,NNW,337,0.0,3.1,85,0.00,,,0.00,WUHU21623XXSP,2013-04-23 21:06:00,
2013-04-23 16:11:00,43.2,38.9,30.02,North,0,0.0,3.1,85,0.00,,,0.00,WUHU21623XXSP,2013-04-23 21:11:00,
2013-04-23 16:16:00,42.6,38.4,30.02,WNW,292,0.0,0.0,85,0.00,,,0.00,WUHU21623XXSP,2013-04-23 21:16:00,
2013-04-23 16:21:00,42.4,38.2,30.02,WNW,292,0.0,0.0,85,0.00,,,0.00,WUHU21623XXSP,2013-04-23 21:21:00,
2013-04-23 16:26:00,42.1,37.9,30.02,North,0,5.4,5.4,85,0.00,,,0.00,WUHU21623XXSP,2013-04-23 21:26:00,
2013-04-23 16:31:00,42.1,37.9,30.02,NNE,22,0.0,5.4,85,0.00,,,0.00,WUHU21623XXSP,2013-04-23 21:31:00,
2013-04-23 16:36:00,41.9,37.7,30.02,North,0,0.0,5.4,85,0.00,,,0.00,WUHU21623XXSP,2013-04-23 21:36:00,
2013-04-23 16:41:00,41.7,37.8,30.02,North,0,0.0,0.0,86,0.00,,,0.00,WUHU21623XXSP,2013-04-23 21:41:00,
2013-04-23 16:46:00,41.5,37.6,30.02,NNW,337,0.0,0.9,86,0.00,,,0.00,WUHU21623XXSP,2013-04-23 21:46:00,
2013-04-23 16:51:00,41.4,37.4,30.02,North,0,0.0,0.9,86,0.00,,,0.00,WUHU21623XXSP,2013-04-23 21:51:00,
2013-04-23 16:56:00,41.4,37.4,30.02,North,0,0.0,2.0,86,0.00,,,0.00,WUHU21623XXSP,2013-04-23 21:56:00,
2013-04-23 17:01:00,41.2,37.3,30.02,North,0,0.0,2.0,86,0.00,,,0.00,WUHU21623XXSP,2013-04-23 22:01:00,
2013-04-23 17:06:00,41.2,37.3,30.03,North,0,0.0,0.0,86,0.00,,,0.00,WUHU21623XXSP,2013-04-23 22:06:00,
2013-04-23 17:11:00,41.0,37.3,30.03,North,0,0.0,1.6,86,0.00,,,0.00,WUHU21623XXSP,2013-04-23 22:11:00,
2013-04-23 17:16:00,40.8,36.9,30.03,NNW,337,0.0,1.6,86,0.00,,,0.00,WUHU21623XXSP,2013-04-23 22:16:00,
2013-04-23 17:21:00,40.6,36.9,30.03,North,0,0.0,0.0,86,0.00,,,0.00,WUHU21623XXSP,2013-04-23 22:21:00,
2013-04-23 17:26:00,40.5,36.7,30.03,NNW,337,0.0,0.0,86,0.00,,,0.00,WUHU21623XXSP,2013-04-23 22:26:00,
2013-04-23 17:31:00,40.3,36.4,30.03,North,0,0.0,0.0,86,0.00,,,0.00,WUHU21623XXSP,2013-04-23 22:31:00,
2013-04-23 17:36:00,40.1,36.2,30.03,NNW,337,0.0,0.0,86,0.00,,,0.00,WUHU21623XXSP,2013-04-23 22:36:00,
2013-04-23 17:41:00,39.9,36.0,30.03,NNW,337,0.0,2.5,86,0.00,,,0.00,WUHU21623XXSP,2013-04-23 22:41:00,
2013-04-23 17:46:00,39.9,36.0,30.04,North,0,1.3,2.5,86,0.00,,,0.00,WUHU21623XXSP,2013-04-23 22:46:00,
2013-04-23 17:51:00,39.7,35.9,30.05,NNE,22,4.0,4.0,86,0.00,,,0.00,WUHU21623XXSP,2013-04-23 22:51:00,
2013-04-23 17:56:00,39.7,36.2,30.05,NNE,22,0.0,4.0,87,0.00,,,0.00,WUHU21623XXSP,2013-04-23 22:56:00,
2013-04-23 18:01:00,39.7,36.2,30.05,North,0,0.0,0.0,87,0.00,,,0.00,WUHU21623XXSP,2013-04-23 23:01:00,
2013-04-23 18:06:00,39.6,36.0,30.05,North,0,0.0,0.0,87,0.00,,,0.00,WUHU21623XXSP,2013-04-23 23:06:00,
2013-04-23 18:11:00,39.4,35.8,30.05,North,0,0.0,0.0,87,0.00,,,0.00,WUHU21623XXSP,2013-04-23 23:11:00,
2013-04-23 18:16:00,39.4,35.8,30.05,NE,45,0.0,0.0,87,0.00,,,0.00,WUHU21623XXSP,2013-04-23 23:16:00,
2013-04-23 18:21:00,39.4,35.8,30.05,NNE,22,0.0,0.0,87,0.00,,,0.00,WUHU21623XXSP,2013-04-23 23:21:00,
2013-04-23 18:26:00,39.4,35.8,30.05,NNE,22,0.0,0.0,87,0.00,,,0.00,WUHU21623XXSP,2013-04-23 23:26:00,
2013-04-23 18:31:00,39.4,35.8,30.06,NNE,22,0.0,0.0,87,0.00,,,0.00,WUHU21623XXSP,2013-04-23 23:31:00,
2013-04-23 18:36:00,39.4,35.8,30.06,NNE,22,0.0,0.0,87,0.00,,,0.00,WUHU21623XXSP,2013-04-23 23:36:00,
2013-04-23 18:41:00,39.4,35.8,30.06,NNE,22,0.0,0.0,87,0.00,,,0.00,WUHU21623XXSP,2013-04-23 23:41:00,
2013-04-23 18:46:00,39.4,35.8,30.06,NE,45,0.0,0.0,87,0.00,,,0.00,WUHU21623XXSP,2013-04-23 23:46:00,
2013-04-23 18:51:00,39.4,35.8,30.06,NNE,22,0.0,0.0,87,0.00,,,0.00,WUHU21623XXSP,2013-04-23 23:51:00,
2013-04-23 18:56:00,39.4,35.8,30.07,North,0,0.0,0.0,87,0.00,,,0.00,WUHU21623XXSP,2013-04-23 23:56:00,
2013-04-23 19:01:00,39.0,35.5,30.07,NNE,22,0.0,0.0,87,0.00,,,0.00,WUHU21623XXSP,2013-04-24 00:01:00,
2013-04-23 19:06:00,39.0,35.5,30.07,North,0,0.0,0.0,87,0.00,,,0.00,WUHU21623XXSP,2013-04-24 00:06:00,
2013-04-23 19:11:00,39.0,35.5,30.07,North,0,0.0,0.0,87,0.00,,,0.00,WUHU21623XXSP,2013-04-24 00:11:00,
2013-04-23 19:16:00,39.0,35.5,30.07,NNE,22,0.0,0.0,87,0.00,,,0.00,WUHU21623XXSP,2013-04-24 00:16:00,
2013-04-23 19:21:00,39.0,35.5,30.08,NNE,22,0.0,0.0,87,0.00,,,0.00,WUHU21623XXSP,2013-04-24 00:21:00,
2013-04-23 19:26:00,38.8,35.6,30.08,NNE,22,0.0,0.0,88,0.00,,,0.00,WUHU21623XXSP,2013-04-24 00:26:00,
2013-04-23 19:31:00,38.8,35.6,30.08,NNE,22,0.0,0.0,88,0.00,,,0.00,WUHU21623XXSP,2013-04-24 00:31:00,
2013-04-23 19:36:00,38.8,35.6,30.08,NNE,22,0.0,0.0,88,0.00,,,0.00,WUHU21623XXSP,2013-04-24 00:36:00,
2013-04-23 19:41:00,38.8,35.6,30.08,NNE,22,0.0,0.0,88,0.00,,,0.00,WUHU21623XXSP,2013-04-24 00:41:00,
2013-04-23 19:46:00,38.8,35.6,30.08,NNE,22,0.0,0.0,88,0.00,,,0.00,WUHU21623XXSP,2013-04-24 00:46:00,
2013-04-23 19:51:00,38.8,35.6,30.08,NNE,22,0.0,0.0,88,0.00,,,0.00,WUHU21623XXSP,2013-04-24 00:51:00,
2013-04-23 19:56:00,38.8,35.6,30.08,North,0,2.2,2.2,88,0.00,,,0.00,WUHU21623XXSP,2013-04-24 00:56:00,
2013-04-23 20:01:00,38.8,35.6,30.08,North,0,2.2,2.2,88,0.00,,,0.00,WUHU21623XXSP,2013-04-24 01:01:00,
2013-04-23 20:06:00,38.5,35.2,30.08,North,0,0.0,2.2,88,0.00,,,0.00,WUHU21623XXSP,2013-04-24 01:06:00,
2013-04-23 20:11:00,38.3,35.0,30.08,North,0,0.0,0.0,88,0.00,,,0.00,WUHU21623XXSP,2013-04-24 01:11:00,
2013-04-23 20:16:00,38.1,35.0,30.09,NNE,22,0.0,0.0,88,0.00,,,0.00,WUHU21623XXSP,2013-04-24 01:16:00,
2013-04-23 20:21:00,37.9,34.7,30.09,NNE,22,0.0,1.1,88,0.00,,,0.00,WUHU21623XXSP,2013-04-24 01:21:00,
2013-04-23 20:26:00,38.1,34.8,30.09,NNW,337,0.0,1.1,88,0.00,,,0.00,WUHU21623XXSP,2013-04-24 01:26:00,
2013-04-23 20:31:00,37.9,34.7,30.09,North,0,0.0,0.0,88,0.00,,,0.00,WUHU21623XXSP,2013-04-24 01:31:00,
2013-04-23 20:36:00,37.9,34.7,30.09,North,0,0.0,1.1,88,0.00,,,0.00,WUHU21623XXSP,2013-04-24 01:36:00,
2013-04-23 20:41:00,37.8,34.7,30.10,North,0,0.0,1.1,88,0.00,,,0.00,WUHU21623XXSP,2013-04-24 01:41:00,
2013-04-23 20:46:00,37.8,34.5,30.10,NNE,22,0.0,0.0,88,0.00,,,0.00,WUHU21623XXSP,2013-04-24 01:46:00,
2013-04-23 20:51:00,37.8,34.5,30.11,NNE,22,0.0,0.0,88,0.00,,,0.00,WUHU21623XXSP,2013-04-24 01:51:00,
2013-04-23 20:56:00,37.8,34.5,30.11,North,0,0.0,0.0,88,0.00,,,0.00,WUHU21623XXSP,2013-04-24 01:56:00,
2013-04-23 21:01:00,37.8,34.5,30.11,NNW,337,0.0,0.0,88,0.00,,,0.00,WUHU21623XXSP,2013-04-24 02:01:00,
2013-04-23 21:06:00,37.8,34.5,30.12,North,0,0.0,0.0,88,0.00,,,0.00,WUHU21623XXSP,2013-04-24 02:06:00,
2013-04-23 21:12:00,37.6,34.3,30.12,NNW,337,0.0,0.0,88,0.00,,,0.00,WUHU21623XXSP,2013-04-24 02:12:00,
2013-04-23 21:17:00,37.6,34.3,30.12,North,0,0.0,0.0,88,0.00,,,0.00,WUHU21623XXSP,2013-04-24 02:17:00,
2013-04-23 21:22:00,37.6,34.3,30.12,NNE,22,0.0,0.0,88,0.00,,,0.00,WUHU21623XXSP,2013-04-24 02:22:00,
2013-04-23 21:27:00,37.6,34.3,30.13,North,0,0.0,0.0,88,0.00,,,0.00,WUHU21623XXSP,2013-04-24 02:27:00,
2013-04-23 21:32:00,37.4,34.1,30.12,North,0,0.9,0.9,88,0.00,,,0.00,WUHU21623XXSP,2013-04-24 02:32:00,
2013-04-23 21:37:00,37.2,33.9,30.13,North,0,6.5,6.5,88,0.00,,,0.00,WUHU21623XXSP,2013-04-24 02:37:00,
2013-04-23 21:42:00,37.0,33.8,30.14,North,0,0.0,6.5,88,0.00,,,0.00,WUHU21623XXSP,2013-04-24 02:42:00,
2013-04-23 21:47:00,36.9,33.6,30.13,North,0,0.0,6.5,88,0.00,,,0.00,WUHU21623XXSP,2013-04-24 02:47:00,
2013-04-23 21:52:00,36.7,33.4,30.13,NNE,22,0.0,0.0,88,0.00,,,0.00,WUHU21623XXSP,2013-04-24 02:52:00,
2013-04-23 21:57:00,36.7,33.4,30.14,NNW,337,0.0,0.0,88,0.00,,,0.00,WUHU21623XXSP,2013-04-24 02:57:00,
2013-04-23 22:03:00,36.5,33.2,30.14,NNW,337,1.1,1.1,88,0.00,,,0.00,WUHU21623XXSP,2013-04-24 03:03:00,
2013-04-23 22:08:00,36.5,33.2,30.14,North,0,0.0,1.1,88,0.00,,,0.00,WUHU21623XXSP,2013-04-24 03:08:00,
2013-04-23 22:13:00,36.5,33.2,30.14,NNE,22,0.0,0.0,88,0.00,,,0.00,WUHU21623XXSP,2013-04-24 03:13:00,
2013-04-23 22:18:00,36.5,33.2,30.14,North,0,0.0,0.0,88,0.00,,,0.00,WUHU21623XXSP,2013-04-24 03:18:00,
2013-04-23 22:23:00,36.5,33.2,30.15,North,0,0.0,0.0,88,0.00,,,0.00,WUHU21623XXSP,2013-04-24 03:23:00,
2013-04-23 22:28:00,36.3,33.0,30.15,North,0,0.0,0.0,88,0.00,,,0.00,WUHU21623XXSP,2013-04-24 03:28:00,
2013-04-23 22:33:00,36.3,33.0,30.15,North,0,0.0,0.0,88,0.00,,,0.00,WUHU21623XXSP,2013-04-24 03:33:00,
2013-04-23 22:38:00,36.3,33.0,30.15,North,0,0.0,0.0,88,0.00,,,0.00,WUHU21623XXSP,2013-04-24 03:38:00,
2013-04-23 22:43:00,36.3,33.0,30.15,North,0,0.0,0.0,88,0.00,,,0.00,WUHU21623XXSP,2013-04-24 03:43:00,
2013-04-23 22:48:00,36.3,33.0,30.15,NNE,22,0.0,0.0,88,0.00,,,0.00,WUHU21623XXSP,2013-04-24 03:48:00,
2013-04-23 22:53:00,36.3,33.0,30.15,NNE,22,0.0,0.0,88,0.00,,,0.00,WUHU21623XXSP,2013-04-24 03:53:00,
2013-04-23 22:58:00,36.3,33.0,30.15,NNE,22,0.0,0.0,88,0.00,,,0.00,WUHU21623XXSP,2013-04-24 03:58:00,
2013-04-23 23:03:00,36.3,33.0,30.15,North,0,0.0,0.0,88,0.00,,,0.00,WUHU21623XXSP,2013-04-24 04:03:00,
2013-04-23 23:08:00,36.3,33.0,30.15,NNE,22,0.0,0.0,88,0.00,,,0.00,WUHU21623XXSP,2013-04-24 04:08:00,
2013-04-23 23:13:00,36.3,33.0,30.15,North,0,0.0,0.0,88,0.00,,,0.00,WUHU21623XXSP,2013-04-24 04:13:00,
2013-04-23 23:18:00,36.3,33.0,30.15,NNW,337,0.0,0.0,88,0.00,,,0.00,WUHU21623XXSP,2013-04-24 04:18:00,
2013-04-23 23:23:00,36.3,33.0,30.15,North,0,0.0,0.0,88,0.00,,,0.00,WUHU21623XXSP,2013-04-24 04:23:00,
2013-04-23 23:28:00,36.3,33.0,30.14,NNE,22,0.0,0.0,88,0.00,,,0.00,WUHU21623XXSP,2013-04-24 04:28:00,
2013-04-23 23:33:00,36.3,33.0,30.15,North,0,0.0,0.0,88,0.00,,,0.00,WUHU21623XXSP,2013-04-24 04:33:00,
2013-04-23 23:38:00,36.3,33.0,30.14,NNE,22,0.0,0.0,88,0.00,,,0.00,WUHU21623XXSP,2013-04-24 04:38:00,
2013-04-23 23:43:00,36.3,33.0,30.14,NE,45,0.0,0.0,88,0.00,,,0.00,WUHU21623XXSP,2013-04-24 04:43:00,
2013-04-23 23:48:00,36.3,33.0,30.14,North,0,0.0,0.0,88,0.00,,,0.00,WUHU21623XXSP,2013-04-24 04:48:00,
2013-04-23 23:53:00,36.3,33.0,30.14,North,0,0.0,0.0,88,0.00,,,0.00,WUHU21623XXSP,2013-04-24 04:53:00,
2013-04-23 23:58:00,36.3,32.9,30.16,NE,45,0.0,0.0,88,0.00,,,0.00,WUHU21623XXSP,2013-04-24 04:58:00,